Time,TemperatureF,DewpointF,PressureIn,WindDirection,WindDirectionDegrees,WindSpeedMPH,WindSpeedGustMPH,Humidity,HourlyPrecipIn,Conditions,Clouds,dailyrainin,SoftwareType,DateUTC
2013-06-24 00:00:00,67.5,64.5,29.70,SW,234,1.0,2.0,90,0.00,,SKC,0.75,VWS V14.01,2013-06-24 05:00:00,
2013-06-24 00:03:00,67.7,64.7,29.70,SW,234,0.0,0.0,90,0.00,,SKC,0.00,VWS V14.01,2013-06-24 05:03:00,
2013-06-24 00:08:00,68.0,65.0,29.70,SW,234,0.0,0.0,90,0.00,,SKC,0.00,VWS V14.01,2013-06-24 05:08:00,
2013-06-24 00:13:00,68.1,64.7,29.70,SW,234,0.0,0.0,89,0.00,,SKC,0.00,VWS V14.01,2013-06-24 05:13:00,
2013-06-24 00:18:00,68.0,64.6,29.70,SW,234,0.0,0.0,89,0.00,,SKC,0.00,VWS V14.01,2013-06-24 05:18:00,
2013-06-24 00:23:00,67.9,64.5,29.70,SW,234,0.0,0.0,89,0.00,,SKC,0.00,VWS V14.01,2013-06-24 05:23:00,
2013-06-24 00:28:00,67.8,64.8,29.71,SW,234,0.0,0.0,90,0.00,,SKC,0.00,VWS V14.01,2013-06-24 05:28:00,
2013-06-24 00:30:00,68.8,65.1,29.70,SW,234,0.0,0.0,88,0.00,,SKC,0.75,VWS V14.01,2013-06-24 05:30:00,
2013-06-24 00:34:00,67.6,64.6,29.71,SW,234,0.0,0.0,90,0.00,,SKC,0.00,VWS V14.01,2013-06-24 05:34:00,
2013-06-24 00:39:00,67.3,64.3,29.71,SW,234,0.0,0.0,90,0.00,,SKC,0.00,VWS V14.01,2013-06-24 05:39:00,
2013-06-24 00:44:00,67.3,64.3,29.71,SW,234,0.0,0.0,90,0.00,,SKC,0.00,VWS V14.01,2013-06-24 05:44:00,
2013-06-24 00:49:00,67.3,64.3,29.71,SW,234,0.0,2.0,90,0.00,,SKC,0.00,VWS V14.01,2013-06-24 05:49:00,
2013-06-24 00:54:00,67.3,64.3,29.71,SW,234,0.0,2.0,90,0.00,,SKC,0.00,VWS V14.01,2013-06-24 05:54:00,
2013-06-24 01:00:00,67.2,64.5,29.71,SW,234,0.0,2.0,91,0.00,,SKC,0.00,VWS V14.01,2013-06-24 06:00:00,
2013-06-24 01:05:00,67.1,64.4,29.71,SW,234,0.0,0.0,91,0.00,,SKC,0.00,VWS V14.01,2013-06-24 06:05:00,
2013-06-24 01:10:00,67.1,64.1,29.71,SW,234,0.0,4.0,90,0.00,,SKC,0.00,VWS V14.01,2013-06-24 06:10:00,
2013-06-24 01:15:00,67.1,64.1,29.71,SW,234,0.0,4.0,90,0.00,,SKC,0.00,VWS V14.01,2013-06-24 06:15:00,
2013-06-24 01:20:00,67.1,64.1,29.71,SW,234,0.0,4.0,90,0.00,,SKC,0.00,VWS V14.01,2013-06-24 06:20:00,
2013-06-24 01:26:00,67.1,64.1,29.71,SW,234,0.0,4.0,90,0.00,,SKC,0.00,VWS V14.01,2013-06-24 06:26:00,
2013-06-24 01:30:00,67.7,64.7,29.71,SW,234,0.0,0.0,90,0.00,,SKC,0.00,VWS V14.01,2013-06-24 06:30:00,
2013-06-24 01:32:00,66.8,64.1,29.71,SW,234,0.0,0.0,91,0.00,,SKC,0.00,VWS V14.01,2013-06-24 06:32:00,
2013-06-24 01:37:00,66.8,63.8,29.71,SW,234,0.0,4.0,90,0.00,,SKC,0.00,VWS V14.01,2013-06-24 06:37:00,
2013-06-24 01:42:00,66.8,63.8,29.72,SW,234,0.0,4.0,90,0.00,,SKC,0.00,VWS V14.01,2013-06-24 06:42:00,
2013-06-24 01:47:00,66.7,64.0,29.72,SW,234,0.0,4.0,91,0.00,,SKC,0.00,VWS V14.01,2013-06-24 06:47:00,
2013-06-24 01:54:00,66.6,63.9,29.72,SW,234,0.0,4.0,91,0.00,,SKC,0.00,VWS V14.01,2013-06-24 06:54:00,
2013-06-24 02:00:00,66.9,63.9,29.72,SW,234,0.0,4.0,90,0.00,,SKC,0.00,VWS V14.01,2013-06-24 07:00:00,
2013-06-24 02:08:00,66.7,63.7,29.72,SW,234,0.0,0.0,90,0.00,,SKC,0.00,VWS V14.01,2013-06-24 07:08:00,
2013-06-24 02:13:00,66.5,63.8,29.72,SW,234,0.0,0.0,91,0.00,,SKC,0.00,VWS V14.01,2013-06-24 07:13:00,
2013-06-24 02:18:00,66.4,63.7,29.72,SW,234,0.0,3.0,91,0.00,,SKC,0.00,VWS V14.01,2013-06-24 07:18:00,
2013-06-24 02:24:00,66.4,63.7,29.72,SW,234,0.0,3.0,91,0.00,,SKC,0.00,VWS V14.01,2013-06-24 07:24:00,
2013-06-24 02:29:00,66.3,63.6,29.72,SW,234,0.0,3.0,91,0.00,,SKC,0.00,VWS V14.01,2013-06-24 07:29:00,
2013-06-24 02:30:00,66.9,64.2,29.71,SW,234,0.0,4.0,91,0.00,,SKC,0.00,VWS V14.01,2013-06-24 07:30:00,
2013-06-24 02:36:00,65.9,63.2,29.72,SW,234,0.0,0.0,91,0.00,,SKC,0.00,VWS V14.01,2013-06-24 07:36:00,
2013-06-24 02:41:00,65.5,63.1,29.72,SW,234,0.0,0.0,92,0.00,,SKC,0.00,VWS V14.01,2013-06-24 07:41:00,
2013-06-24 02:47:00,65.5,63.1,29.72,SW,234,0.0,2.0,92,0.00,,SKC,0.00,VWS V14.01,2013-06-24 07:47:00,
2013-06-24 02:52:00,65.6,63.5,29.72,SW,234,0.0,2.0,93,0.00,,SKC,0.00,VWS V14.01,2013-06-24 07:52:00,
2013-06-24 02:57:00,65.6,63.5,29.72,SW,234,0.0,3.0,93,0.00,,SKC,0.00,VWS V14.01,2013-06-24 07:57:00,
2013-06-24 03:00:00,66.9,63.9,29.72,SW,234,0.0,4.0,90,0.00,,SKC,0.00,VWS V14.01,2013-06-24 08:00:00,
2013-06-24 03:03:00,65.5,63.4,29.72,SW,234,0.0,0.0,93,0.00,,SKC,0.00,VWS V14.01,2013-06-24 08:03:00,
2013-06-24 03:09:00,65.5,63.4,29.72,SW,234,0.0,0.0,93,0.00,,SKC,0.00,VWS V14.01,2013-06-24 08:09:00,
2013-06-24 03:15:00,65.6,63.5,29.72,SW,234,0.0,1.0,93,0.00,,SKC,0.00,VWS V14.01,2013-06-24 08:15:00,
2013-06-24 03:20:00,65.5,63.4,29.72,SW,234,0.0,1.0,93,0.00,,SKC,0.00,VWS V14.01,2013-06-24 08:20:00,
2013-06-24 03:25:00,65.4,63.0,29.72,SW,234,0.0,1.0,92,0.00,,SKC,0.00,VWS V14.01,2013-06-24 08:25:00,
2013-06-24 03:30:00,65.1,62.7,29.71,SW,234,0.0,1.0,92,0.00,,SKC,0.00,VWS V14.01,2013-06-24 08:30:00,
2013-06-24 03:35:00,64.8,62.7,29.72,SW,234,0.0,0.0,93,0.00,,SKC,0.00,VWS V14.01,2013-06-24 08:35:00,
2013-06-24 03:41:00,64.6,62.5,29.72,SW,234,0.0,0.0,93,0.00,,SKC,0.00,VWS V14.01,2013-06-24 08:41:00,
2013-06-24 03:47:00,64.6,62.8,29.72,SW,234,0.0,0.0,94,0.00,,SKC,0.00,VWS V14.01,2013-06-24 08:47:00,
2013-06-24 03:53:00,64.6,62.8,29.72,SW,234,0.0,0.0,94,0.00,,SKC,0.00,VWS V14.01,2013-06-24 08:53:00,
2013-06-24 03:58:00,64.5,62.7,29.71,SW,234,0.0,0.0,94,0.00,,SKC,0.00,VWS V14.01,2013-06-24 08:58:00,
2013-06-24 04:00:00,65.6,63.5,29.72,SW,234,0.0,3.0,93,0.00,,SKC,0.00,VWS V14.01,2013-06-24 09:00:00,
2013-06-24 04:03:00,64.4,62.6,29.71,SW,234,0.0,0.0,94,0.00,,SKC,0.00,VWS V14.01,2013-06-24 09:03:00,
2013-06-24 04:08:00,64.2,62.4,29.71,SW,234,0.0,0.0,94,0.00,,SKC,0.00,VWS V14.01,2013-06-24 09:08:00,
2013-06-24 04:13:00,64.0,62.2,29.71,SW,234,0.0,0.0,94,0.00,,SKC,0.00,VWS V14.01,2013-06-24 09:13:00,
2013-06-24 04:18:00,63.9,62.1,29.70,SW,234,0.0,0.0,94,0.00,,SKC,0.00,VWS V14.01,2013-06-24 09:18:00,
2013-06-24 04:23:00,63.8,62.0,29.70,SW,234,0.0,0.0,94,0.00,,SKC,0.00,VWS V14.01,2013-06-24 09:23:00,
2013-06-24 04:28:00,63.8,62.0,29.71,SW,234,0.0,0.0,94,0.00,,SKC,0.00,VWS V14.01,2013-06-24 09:28:00,
2013-06-24 04:30:00,65.1,62.7,29.71,SW,234,0.0,1.0,92,0.00,,SKC,0.00,VWS V14.01,2013-06-24 09:30:00,
2013-06-24 04:34:00,63.7,62.0,29.71,SW,234,0.0,0.0,94,0.00,,SKC,0.00,VWS V14.01,2013-06-24 09:34:00,
2013-06-24 04:39:00,63.7,62.2,29.72,SW,234,0.0,0.0,95,0.00,,SKC,0.00,VWS V14.01,2013-06-24 09:39:00,
2013-06-24 04:44:00,63.5,62.0,29.72,SW,234,0.0,0.0,95,0.00,,SKC,0.00,VWS V14.01,2013-06-24 09:44:00,
2013-06-24 04:50:00,63.3,61.8,29.72,SW,234,0.0,0.0,95,0.00,,SKC,0.00,VWS V14.01,2013-06-24 09:50:00,
2013-06-24 04:57:00,63.2,61.8,29.71,SW,234,0.0,0.0,95,0.00,,SKC,0.00,VWS V14.01,2013-06-24 09:57:00,
2013-06-24 05:00:00,64.5,62.7,29.71,SW,234,0.0,0.0,94,0.00,,SKC,0.00,VWS V14.01,2013-06-24 10:00:00,
2013-06-24 05:02:00,63.2,61.8,29.72,SW,234,0.0,0.0,95,0.00,,SKC,0.00,VWS V14.01,2013-06-24 10:02:00,
2013-06-24 05:08:00,63.2,61.8,29.72,SW,234,0.0,0.0,95,0.00,,SKC,0.00,VWS V14.01,2013-06-24 10:08:00,
2013-06-24 05:14:00,63.0,61.5,29.72,SW,234,0.0,0.0,95,0.00,,SKC,0.00,VWS V14.01,2013-06-24 10:14:00,
2013-06-24 05:19:00,62.9,61.5,29.72,SW,234,0.0,0.0,95,0.00,,SKC,0.00,VWS V14.01,2013-06-24 10:19:00,
2013-06-24 05:24:00,62.9,61.5,29.73,SW,234,0.0,0.0,95,0.00,,SKC,0.00,VWS V14.01,2013-06-24 10:24:00,
2013-06-24 05:29:00,62.8,61.3,29.73,SW,234,0.0,0.0,95,0.00,,SKC,0.00,VWS V14.01,2013-06-24 10:29:00,
2013-06-24 05:30:00,63.7,61.9,29.71,SW,234,0.0,0.0,94,0.00,,SKC,0.00,VWS V14.01,2013-06-24 10:30:00,
2013-06-24 05:34:00,62.9,61.5,29.73,SW,234,0.0,0.0,95,0.00,,SKC,0.00,VWS V14.01,2013-06-24 10:34:00,
2013-06-24 05:39:00,62.9,61.5,29.73,SW,234,0.0,0.0,95,0.00,,SKC,0.00,VWS V14.01,2013-06-24 10:39:00,
2013-06-24 05:45:00,62.7,61.2,29.73,SW,234,0.0,0.0,95,0.00,,SKC,0.00,VWS V14.01,2013-06-24 10:45:00,
2013-06-24 05:50:00,62.8,61.3,29.73,SW,234,0.0,0.0,95,0.00,,SKC,0.00,VWS V14.01,2013-06-24 10:50:00,
2013-06-24 05:55:00,62.8,61.3,29.73,SW,234,0.0,0.0,95,0.00,,SKC,0.00,VWS V14.01,2013-06-24 10:55:00,
2013-06-24 06:00:00,62.9,61.5,29.73,SW,234,0.0,0.0,95,0.00,,SKC,0.00,VWS V14.01,2013-06-24 11:00:00,
2013-06-24 06:06:00,63.1,61.7,29.74,SW,234,0.0,0.0,95,0.00,,SKC,0.00,VWS V14.01,2013-06-24 11:06:00,
2013-06-24 06:12:00,63.2,61.8,29.74,SW,234,0.0,0.0,95,0.00,,SKC,0.00,VWS V14.01,2013-06-24 11:12:00,
2013-06-24 06:17:00,63.5,62.0,29.73,SW,234,0.0,0.0,95,0.00,,SKC,0.00,VWS V14.01,2013-06-24 11:17:00,
2013-06-24 06:22:00,63.8,62.3,29.74,SW,234,0.0,0.0,95,0.00,,SKC,0.00,VWS V14.01,2013-06-24 11:22:00,
2013-06-24 06:27:00,64.1,62.6,29.74,SW,234,0.0,0.0,95,0.00,,SKC,0.00,VWS V14.01,2013-06-24 11:27:00,
2013-06-24 06:30:00,62.7,61.2,29.73,SW,234,0.0,0.0,95,0.00,,SKC,0.00,VWS V14.01,2013-06-24 11:30:00,
2013-06-24 06:34:00,64.6,63.1,29.73,SW,234,0.0,0.0,95,0.00,,SKC,0.00,VWS V14.01,2013-06-24 11:34:00,
2013-06-24 06:42:00,64.9,63.4,29.74,SW,234,0.0,0.0,95,0.00,,SKC,0.00,VWS V14.01,2013-06-24 11:42:00,
2013-06-24 06:49:00,65.1,63.6,29.74,SW,234,0.0,0.0,95,0.00,,SKC,0.00,VWS V14.01,2013-06-24 11:49:00,
2013-06-24 06:54:00,65.5,64.0,29.74,SW,234,0.0,0.0,95,0.00,,SKC,0.00,VWS V14.01,2013-06-24 11:54:00,
2013-06-24 06:59:00,65.9,64.4,29.73,SW,234,0.0,0.0,95,0.00,,SKC,0.00,VWS V14.01,2013-06-24 11:59:00,
2013-06-24 07:00:00,62.9,61.5,29.73,SW,234,0.0,0.0,95,0.00,,SKC,0.00,VWS V14.01,2013-06-24 12:00:00,
2013-06-24 07:04:00,66.4,64.9,29.74,SW,234,0.0,1.0,95,0.00,,SKC,0.00,VWS V14.01,2013-06-24 12:04:00,
2013-06-24 07:09:00,67.0,65.5,29.74,SW,234,0.0,1.0,95,0.00,,SKC,0.00,VWS V14.01,2013-06-24 12:09:00,
2013-06-24 07:15:00,67.1,65.6,29.74,SW,234,0.0,1.0,95,0.00,,SKC,0.00,VWS V14.01,2013-06-24 12:15:00,
2013-06-24 07:20:00,67.2,65.4,29.74,SW,234,0.0,1.0,94,0.00,,SKC,0.00,VWS V14.01,2013-06-24 12:20:00,
2013-06-24 07:26:00,67.3,64.9,29.74,SW,234,0.0,1.0,92,0.00,,SKC,0.00,VWS V14.01,2013-06-24 12:26:00,
2013-06-24 07:30:00,64.4,62.9,29.74,SW,234,0.0,0.0,95,0.00,,SKC,0.00,VWS V14.01,2013-06-24 12:30:00,
2013-06-24 07:31:00,67.9,65.8,29.73,SW,236,0.0,0.0,93,0.00,,SKC,0.00,VWS V14.01,2013-06-24 12:31:00,
2013-06-24 07:36:00,68.5,66.4,29.73,SW,236,0.0,0.0,93,0.00,,SKC,0.00,VWS V14.01,2013-06-24 12:36:00,
2013-06-24 07:41:00,69.4,67.0,29.73,SW,236,0.0,0.0,92,0.00,,SKC,0.00,VWS V14.01,2013-06-24 12:41:00,
2013-06-24 07:47:00,69.9,66.5,29.73,SW,236,0.0,0.0,89,0.00,,SKC,0.00,VWS V14.01,2013-06-24 12:47:00,
2013-06-24 07:52:00,69.9,65.5,29.73,SW,236,0.0,0.0,86,0.00,,SKC,0.00,VWS V14.01,2013-06-24 12:52:00,
2013-06-24 07:57:00,69.7,65.3,29.73,SW,236,0.0,1.0,86,0.00,,SKC,0.00,VWS V14.01,2013-06-24 12:57:00,
2013-06-24 08:00:00,66.0,64.5,29.74,SW,234,0.0,0.0,95,0.00,,SKC,0.00,VWS V14.01,2013-06-24 13:00:00,
2013-06-24 08:02:00,69.5,64.8,29.73,SW,236,0.0,0.0,85,0.00,,SKC,0.00,VWS V14.01,2013-06-24 13:02:00,
2013-06-24 08:08:00,69.5,65.1,29.73,SW,236,0.0,2.0,86,0.00,,SKC,0.00,VWS V14.01,2013-06-24 13:08:00,
2013-06-24 08:13:00,69.4,65.4,29.73,SW,236,0.0,2.0,87,0.00,,SKC,0.00,VWS V14.01,2013-06-24 13:13:00,
2013-06-24 08:18:00,69.2,65.2,29.73,SW,236,0.0,2.0,87,0.00,,SKC,0.00,VWS V14.01,2013-06-24 13:18:00,
2013-06-24 08:23:00,69.2,65.2,29.73,SW,236,0.0,2.0,87,0.00,,SKC,0.00,VWS V14.01,2013-06-24 13:23:00,
2013-06-24 08:28:00,69.6,66.2,29.72,SW,236,0.0,2.0,89,0.00,,SKC,0.00,VWS V14.01,2013-06-24 13:28:00,
2013-06-24 08:30:00,67.8,65.7,29.73,SW,236,0.0,1.0,93,0.00,,SKC,0.00,VWS V14.01,2013-06-24 13:30:00,
2013-06-24 08:33:00,70.2,66.2,29.72,SW,236,0.0,1.0,87,0.00,,SKC,0.00,VWS V14.01,2013-06-24 13:33:00,
2013-06-24 08:39:00,71.2,66.8,29.72,SW,236,0.0,1.0,86,0.00,,SKC,0.00,VWS V14.01,2013-06-24 13:39:00,
2013-06-24 08:44:00,71.9,67.2,29.72,SW,236,0.0,1.0,85,0.00,,SKC,0.00,VWS V14.01,2013-06-24 13:44:00,
2013-06-24 08:49:00,72.4,67.3,29.72,SW,236,0.0,1.0,84,0.00,,SKC,0.00,VWS V14.01,2013-06-24 13:49:00,
2013-06-24 08:54:00,72.7,66.5,29.72,SW,236,0.0,1.0,81,0.00,,SKC,0.00,VWS V14.01,2013-06-24 13:54:00,
2013-06-24 08:59:00,73.1,67.3,29.72,SW,236,0.0,1.0,82,0.00,,SKC,0.00,VWS V14.01,2013-06-24 13:59:00,
2013-06-24 09:00:00,69.6,65.2,29.72,SW,236,0.0,1.0,86,0.00,,SKC,0.00,VWS V14.01,2013-06-24 14:00:00,
2013-06-24 09:06:00,73.4,67.2,29.72,SW,236,0.0,1.0,81,0.00,,SKC,0.00,VWS V14.01,2013-06-24 14:06:00,
2013-06-24 09:12:00,73.7,67.5,29.73,SW,236,0.0,1.0,81,0.00,,SKC,0.00,VWS V14.01,2013-06-24 14:12:00,
2013-06-24 09:18:00,73.9,67.3,29.73,SW,236,0.0,2.0,80,0.00,,SKC,0.00,VWS V14.01,2013-06-24 14:18:00,
2013-06-24 09:23:00,74.1,67.2,29.73,SW,236,0.0,2.0,79,0.00,,SKC,0.00,VWS V14.01,2013-06-24 14:23:00,
2013-06-24 09:29:00,74.3,67.4,29.73,SW,236,0.0,2.0,79,0.00,,SKC,0.00,VWS V14.01,2013-06-24 14:29:00,
2013-06-24 09:30:00,69.8,66.1,29.72,SW,236,0.0,2.0,88,0.00,,SKC,0.00,VWS V14.01,2013-06-24 14:30:00,
2013-06-24 09:34:00,74.6,67.3,29.73,SW,236,0.0,1.0,78,0.00,,SKC,0.00,VWS V14.01,2013-06-24 14:34:00,
2013-06-24 09:39:00,74.7,67.8,29.73,SW,236,0.0,1.0,79,0.00,,SKC,0.00,VWS V14.01,2013-06-24 14:39:00,
2013-06-24 09:46:00,74.9,67.6,29.73,SW,236,1.0,1.0,78,0.00,,SKC,0.00,VWS V14.01,2013-06-24 14:46:00,
2013-06-24 09:51:00,75.1,68.2,29.73,SW,236,0.0,1.0,79,0.00,,SKC,0.00,VWS V14.01,2013-06-24 14:51:00,
2013-06-24 09:57:00,75.3,68.3,29.73,SW,234,2.0,4.0,79,0.00,,SKC,0.00,VWS V14.01,2013-06-24 14:57:00,
2013-06-24 10:00:00,73.1,67.3,29.72,SW,236,0.0,1.0,82,0.00,,SKC,0.00,VWS V14.01,2013-06-24 15:00:00,
2013-06-24 10:02:00,75.7,68.0,29.72,SW,232,0.0,4.0,77,0.00,,SKC,0.00,VWS V14.01,2013-06-24 15:02:00,
2013-06-24 10:07:00,76.0,67.1,29.73,SW,232,1.0,4.0,74,0.00,,SKC,0.00,VWS V14.01,2013-06-24 15:07:00,
2013-06-24 10:14:00,76.6,68.1,29.72,SW,229,0.0,5.0,75,0.00,,SKC,0.00,VWS V14.01,2013-06-24 15:14:00,
2013-06-24 10:19:00,76.9,68.0,29.73,SW,223,0.0,5.0,74,0.00,,SKC,0.00,VWS V14.01,2013-06-24 15:19:00,
2013-06-24 10:24:00,77.0,66.9,29.73,SW,223,0.0,5.0,71,0.00,,SKC,0.00,VWS V14.01,2013-06-24 15:24:00,
2013-06-24 10:29:00,77.1,66.2,29.73,SW,223,0.0,5.0,69,0.00,,SKC,0.00,VWS V14.01,2013-06-24 15:29:00,
2013-06-24 10:30:00,74.4,67.5,29.73,SW,236,0.0,2.0,79,0.00,,SKC,0.00,VWS V14.01,2013-06-24 15:30:00,
2013-06-24 10:34:00,77.2,66.2,29.73,SW,223,0.0,1.0,69,0.00,,SKC,0.00,VWS V14.01,2013-06-24 15:34:00,
2013-06-24 10:40:00,77.4,66.0,29.73,SW,223,0.0,1.0,68,0.00,,SKC,0.00,VWS V14.01,2013-06-24 15:40:00,
2013-06-24 10:47:00,77.6,66.6,29.73,SW,223,0.0,2.0,69,0.00,,SKC,0.00,VWS V14.01,2013-06-24 15:47:00,
2013-06-24 10:52:00,77.7,66.3,29.73,SW,223,0.0,4.0,68,0.00,,SKC,0.00,VWS V14.01,2013-06-24 15:52:00,
2013-06-24 10:58:00,77.8,67.2,29.74,SW,223,0.0,4.0,70,0.00,,SKC,0.00,VWS V14.01,2013-06-24 15:58:00,
2013-06-24 11:00:00,75.6,68.6,29.72,SW,232,4.0,4.0,79,0.00,,SKC,0.00,VWS V14.01,2013-06-24 16:00:00,
2013-06-24 11:04:00,78.0,67.0,29.73,SW,223,0.0,0.0,69,0.00,,SKC,0.00,VWS V14.01,2013-06-24 16:04:00,
2013-06-24 11:09:00,78.3,66.9,29.73,SW,223,0.0,1.0,68,0.00,,SKC,0.00,VWS V14.01,2013-06-24 16:09:00,
2013-06-24 11:14:00,78.7,67.7,29.73,SSW,205,0.0,5.0,69,0.00,,SKC,0.00,VWS V14.01,2013-06-24 16:14:00,
2013-06-24 11:19:00,79.1,67.2,29.73,SSW,205,0.0,5.0,67,0.00,,SKC,0.00,VWS V14.01,2013-06-24 16:19:00,
2013-06-24 11:24:00,79.2,67.7,29.72,South,190,0.0,5.0,68,0.00,,SKC,0.00,VWS V14.01,2013-06-24 16:24:00,
2013-06-24 11:29:00,79.5,67.6,29.72,South,185,5.0,5.0,67,0.00,,SKC,0.00,VWS V14.01,2013-06-24 16:29:00,
2013-06-24 11:30:00,77.1,66.2,29.73,SW,223,0.0,5.0,69,0.00,,SKC,0.00,VWS V14.01,2013-06-24 16:30:00,
2013-06-24 11:37:00,80.5,67.7,29.71,South,179,1.0,6.0,65,0.00,,SKC,0.00,VWS V14.01,2013-06-24 16:37:00,
2013-06-24 11:42:00,81.2,67.9,29.71,South,179,0.0,6.0,64,0.00,,SKC,0.00,VWS V14.01,2013-06-24 16:42:00,
2013-06-24 11:47:00,81.6,68.2,29.70,South,179,1.0,6.0,64,0.00,,SKC,0.00,VWS V14.01,2013-06-24 16:47:00,
2013-06-24 11:53:00,82.1,66.8,29.70,South,177,0.0,6.0,60,0.00,,SKC,0.00,VWS V14.01,2013-06-24 16:53:00,
2013-06-24 11:58:00,82.3,67.0,29.70,South,177,0.0,6.0,60,0.00,,SKC,0.00,VWS V14.01,2013-06-24 16:58:00,
2013-06-24 12:00:00,77.8,66.8,29.74,SW,223,0.0,4.0,69,0.00,,SKC,0.00,VWS V14.01,2013-06-24 17:00:00,
2013-06-24 12:04:00,81.0,66.3,29.70,South,177,0.0,1.0,61,0.00,,SKC,0.00,VWS V14.01,2013-06-24 17:04:00,
2013-06-24 12:09:00,80.8,66.6,29.70,South,176,1.0,2.0,62,0.00,,SKC,0.00,VWS V14.01,2013-06-24 17:09:00,
2013-06-24 12:15:00,80.3,66.6,29.70,South,176,0.0,2.0,63,0.00,,SKC,0.00,VWS V14.01,2013-06-24 17:15:00,
2013-06-24 12:20:00,80.6,63.0,29.70,South,176,0.0,4.0,55,0.00,,SKC,0.00,VWS V14.01,2013-06-24 17:20:00,
2013-06-24 12:26:00,81.4,65.2,29.70,South,176,1.0,4.0,58,0.00,,SKC,0.00,VWS V14.01,2013-06-24 17:26:00,
2013-06-24 12:30:00,79.7,67.3,29.72,South,184,1.0,5.0,66,0.00,,SKC,0.00,VWS V14.01,2013-06-24 17:30:00,
2013-06-24 12:32:00,81.8,67.5,29.70,South,176,0.0,0.0,62,0.00,,SKC,0.00,VWS V14.01,2013-06-24 17:32:00,
2013-06-24 12:38:00,82.0,66.3,29.70,South,176,0.0,2.0,59,0.00,,SKC,0.00,VWS V14.01,2013-06-24 17:38:00,
2013-06-24 12:44:00,82.5,68.2,29.70,SE,146,5.0,8.0,62,0.00,,SKC,0.00,VWS V14.01,2013-06-24 17:44:00,
2013-06-24 12:49:00,82.7,67.4,29.70,SE,144,5.0,8.0,60,0.00,,SKC,0.00,VWS V14.01,2013-06-24 17:49:00,
2013-06-24 12:54:00,83.1,68.3,29.70,SE,132,6.0,8.0,61,0.00,,SKC,0.00,VWS V14.01,2013-06-24 17:54:00,
2013-06-24 12:59:00,83.1,67.8,29.70,SE,143,4.0,8.0,60,0.00,,SKC,0.00,VWS V14.01,2013-06-24 17:59:00,
2013-06-24 13:00:00,82.0,66.8,29.70,South,177,1.0,6.0,60,0.00,,SKC,0.00,VWS V14.01,2013-06-24 18:00:00,
2013-06-24 13:05:00,83.1,67.3,29.70,SE,127,4.0,10.0,59,0.00,,SKC,0.00,VWS V14.01,2013-06-24 18:05:00,
2013-06-24 13:10:00,83.1,68.7,29.70,SE,130,0.0,10.0,62,0.00,,SKC,0.00,VWS V14.01,2013-06-24 18:10:00,
2013-06-24 13:15:00,83.3,68.0,29.69,SE,130,0.0,10.0,60,0.00,,SKC,0.00,VWS V14.01,2013-06-24 18:15:00,
2013-06-24 13:20:00,83.2,68.4,29.69,SE,130,0.0,10.0,61,0.00,,SKC,0.00,VWS V14.01,2013-06-24 18:20:00,
2013-06-24 13:28:00,83.7,67.4,29.69,SE,131,0.0,10.0,58,0.00,,SKC,0.00,VWS V14.01,2013-06-24 18:28:00,
2013-06-24 13:30:00,81.8,67.1,29.70,South,176,0.0,4.0,61,0.00,,SKC,0.00,VWS V14.01,2013-06-24 18:30:00,
2013-06-24 13:34:00,83.6,67.3,29.69,SE,136,0.0,6.0,58,0.00,,SKC,0.00,VWS V14.01,2013-06-24 18:34:00,
2013-06-24 13:39:00,83.6,67.3,29.69,SE,136,0.0,8.0,58,0.00,,SKC,0.00,VWS V14.01,2013-06-24 18:39:00,
2013-06-24 13:45:00,83.0,68.2,29.69,SE,135,0.0,8.0,61,0.00,,SKC,0.00,VWS V14.01,2013-06-24 18:45:00,
2013-06-24 13:50:00,82.3,67.5,29.69,SE,135,0.0,8.0,61,0.00,,SKC,0.00,VWS V14.01,2013-06-24 18:50:00,
2013-06-24 13:56:00,81.8,68.0,29.69,SE,135,0.0,8.0,63,0.00,,SKC,0.00,VWS V14.01,2013-06-24 18:56:00,
2013-06-24 14:00:00,83.2,67.4,29.70,SE,137,7.0,8.0,59,0.00,,SKC,0.00,VWS V14.01,2013-06-24 19:00:00,
2013-06-24 14:01:00,81.4,67.6,29.69,SE,135,5.0,5.0,63,0.00,,SKC,0.00,VWS V14.01,2013-06-24 19:01:00,
2013-06-24 14:06:00,81.3,68.4,29.69,SE,135,0.0,5.0,65,0.00,,SKC,0.00,VWS V14.01,2013-06-24 19:06:00,
2013-06-24 14:13:00,81.7,69.7,29.68,SE,135,0.0,5.0,67,0.00,,SKC,0.00,VWS V14.01,2013-06-24 19:13:00,
2013-06-24 14:18:00,82.0,67.7,29.68,SE,135,0.0,5.0,62,0.00,,SKC,0.00,VWS V14.01,2013-06-24 19:18:00,
2013-06-24 14:24:00,82.2,68.4,29.67,SE,136,0.0,7.0,63,0.00,,SKC,0.00,VWS V14.01,2013-06-24 19:24:00,
2013-06-24 14:29:00,82.2,69.3,29.67,SE,136,0.0,7.0,65,0.00,,SKC,0.00,VWS V14.01,2013-06-24 19:29:00,
2013-06-24 14:30:00,83.8,68.9,29.69,SE,131,0.0,10.0,61,0.00,,SKC,0.00,VWS V14.01,2013-06-24 19:30:00,
2013-06-24 14:35:00,82.2,69.7,29.67,SE,136,0.0,5.0,66,0.00,,SKC,0.00,VWS V14.01,2013-06-24 19:35:00,
2013-06-24 14:40:00,82.1,68.3,29.67,SE,136,0.0,5.0,63,0.00,,SKC,0.00,VWS V14.01,2013-06-24 19:40:00,
2013-06-24 14:46:00,82.1,70.1,29.66,SE,136,0.0,5.0,67,0.00,,SKC,0.00,VWS V14.01,2013-06-24 19:46:00,
2013-06-24 14:52:00,81.9,70.3,29.66,SE,136,0.0,5.0,68,0.00,,SKC,0.00,VWS V14.01,2013-06-24 19:52:00,
2013-06-24 14:57:00,81.9,70.7,29.66,SE,136,0.0,5.0,69,0.00,,SKC,0.00,VWS V14.01,2013-06-24 19:57:00,
2013-06-24 15:00:00,81.4,68.1,29.69,SE,135,0.0,8.0,64,0.00,,SKC,0.00,VWS V14.01,2013-06-24 20:00:00,
2013-06-24 15:02:00,81.6,71.3,29.66,SE,136,0.0,0.0,71,0.00,,SKC,0.00,VWS V14.01,2013-06-24 20:02:00,
2013-06-24 15:07:00,81.7,70.1,29.66,SE,136,0.0,1.0,68,0.00,,SKC,0.00,VWS V14.01,2013-06-24 20:07:00,
2013-06-24 15:12:00,82.3,71.1,29.65,SE,136,0.0,5.0,69,0.00,,SKC,0.00,VWS V14.01,2013-06-24 20:12:00,
2013-06-24 15:17:00,82.6,70.1,29.65,SE,136,0.0,5.0,66,0.00,,SKC,0.00,VWS V14.01,2013-06-24 20:17:00,
2013-06-24 15:23:00,82.9,71.3,29.65,SE,136,1.0,5.0,68,0.00,,SKC,0.00,VWS V14.01,2013-06-24 20:23:00,
2013-06-24 15:29:00,82.9,70.4,29.64,SE,136,0.0,6.0,66,0.00,,SKC,0.00,VWS V14.01,2013-06-24 20:29:00,
2013-06-24 15:30:00,82.2,68.8,29.67,SE,136,0.0,7.0,64,0.00,,SKC,0.00,VWS V14.01,2013-06-24 20:30:00,
2013-06-24 15:34:00,82.1,70.1,29.64,SE,136,0.0,1.0,67,0.00,,SKC,0.00,VWS V14.01,2013-06-24 20:34:00,
2013-06-24 15:39:00,81.6,70.0,29.64,SE,136,0.0,1.0,68,0.00,,SKC,0.00,VWS V14.01,2013-06-24 20:39:00,
2013-06-24 15:44:00,81.4,70.7,29.64,SE,136,0.0,5.0,70,0.00,,SKC,0.00,VWS V14.01,2013-06-24 20:44:00,
2013-06-24 15:49:00,81.4,71.1,29.64,SE,136,0.0,5.0,71,0.00,,SKC,0.00,VWS V14.01,2013-06-24 20:49:00,
2013-06-24 15:54:00,81.4,71.1,29.64,SE,136,0.0,5.0,71,0.00,,SKC,0.00,VWS V14.01,2013-06-24 20:54:00,
2013-06-24 16:00:00,81.6,71.3,29.64,SE,136,0.0,5.0,71,0.00,,SKC,0.00,VWS V14.01,2013-06-24 21:00:00,
2013-06-24 16:06:00,81.5,70.8,29.64,SE,136,0.0,0.0,70,0.00,,SKC,0.00,VWS V14.01,2013-06-24 21:06:00,
2013-06-24 16:12:00,81.1,70.0,29.64,SE,136,0.0,0.0,69,0.00,,SKC,0.00,VWS V14.01,2013-06-24 21:12:00,
2013-06-24 16:17:00,80.9,70.2,29.64,SE,136,0.0,0.0,70,0.00,,SKC,0.00,VWS V14.01,2013-06-24 21:17:00,
2013-06-24 16:22:00,80.8,70.5,29.64,SE,136,0.0,0.0,71,0.00,,SKC,0.00,VWS V14.01,2013-06-24 21:22:00,
2013-06-24 16:27:00,80.7,69.6,29.64,SE,136,0.0,0.0,69,0.00,,SKC,0.00,VWS V14.01,2013-06-24 21:27:00,
2013-06-24 16:30:00,82.9,71.3,29.64,SE,136,0.0,6.0,68,0.00,,SKC,0.00,VWS V14.01,2013-06-24 21:30:00,
2013-06-24 16:33:00,80.7,70.0,29.64,SE,136,0.0,0.0,70,0.00,,SKC,0.00,VWS V14.01,2013-06-24 21:33:00,
2013-06-24 16:38:00,80.9,70.2,29.64,SE,136,0.0,0.0,70,0.00,,SKC,0.00,VWS V14.01,2013-06-24 21:38:00,
2013-06-24 16:43:00,81.0,70.7,29.65,SE,136,0.0,0.0,71,0.00,,SKC,0.00,VWS V14.01,2013-06-24 21:43:00,
2013-06-24 16:48:00,81.0,70.7,29.65,SE,136,0.0,0.0,71,0.00,,SKC,0.00,VWS V14.01,2013-06-24 21:48:00,
2013-06-24 16:55:00,80.9,71.0,29.65,SE,136,0.0,0.0,72,0.00,,SKC,0.00,VWS V14.01,2013-06-24 21:55:00,
2013-06-24 17:00:00,80.6,71.6,29.65,SE,136,0.0,0.0,74,0.00,,SKC,0.00,VWS V14.01,2013-06-24 22:00:00,
2013-06-24 17:07:00,80.3,71.3,29.65,SE,136,0.0,1.0,74,0.00,,SKC,0.00,VWS V14.01,2013-06-24 22:07:00,
2013-06-24 17:13:00,80.2,71.6,29.65,SE,136,0.0,1.0,75,0.00,,SKC,0.00,VWS V14.01,2013-06-24 22:13:00,
2013-06-24 17:19:00,80.1,71.5,29.66,SE,136,0.0,1.0,75,0.00,,SKC,0.00,VWS V14.01,2013-06-24 22:19:00,
2013-06-24 17:25:00,79.6,72.1,29.66,SE,146,0.0,6.0,78,0.00,,SKC,0.00,VWS V14.01,2013-06-24 22:25:00,
2013-06-24 17:30:00,80.6,69.1,29.64,SE,136,0.0,0.0,68,0.00,,SKC,0.00,VWS V14.01,2013-06-24 22:30:00,
2013-06-24 17:31:00,79.3,73.0,29.66,SE,146,0.0,0.0,81,0.00,,SKC,0.00,VWS V14.01,2013-06-24 22:31:00,
2013-06-24 17:36:00,79.1,72.4,29.66,SE,146,1.0,5.0,80,0.00,,SKC,0.00,VWS V14.01,2013-06-24 22:36:00,
2013-06-24 17:43:00,78.9,73.3,29.66,SE,146,0.0,5.0,83,0.00,,SKC,0.00,VWS V14.01,2013-06-24 22:43:00,
2013-06-24 17:48:00,78.7,73.1,29.65,SE,146,0.0,5.0,83,0.00,,SKC,0.00,VWS V14.01,2013-06-24 22:48:00,
2013-06-24 17:53:00,78.2,72.6,29.66,SE,146,0.0,5.0,83,0.00,,SKC,0.00,VWS V14.01,2013-06-24 22:53:00,
2013-06-24 17:58:00,77.7,72.1,29.66,SE,146,0.0,5.0,83,0.00,,SKC,0.00,VWS V14.01,2013-06-24 22:58:00,
2013-06-24 18:00:00,80.5,71.5,29.65,SE,136,0.0,0.0,74,0.00,,SKC,0.00,VWS V14.01,2013-06-24 23:00:00,
2013-06-24 18:03:00,77.3,72.1,29.65,SE,146,0.0,3.0,84,0.00,,SKC,0.00,VWS V14.01,2013-06-24 23:03:00,
2013-06-24 18:08:00,77.2,71.6,29.65,SE,146,0.0,4.0,83,0.00,,SKC,0.00,VWS V14.01,2013-06-24 23:08:00,
2013-06-24 18:14:00,77.2,72.0,29.65,SE,146,0.0,4.0,84,0.00,,SKC,0.00,VWS V14.01,2013-06-24 23:14:00,
2013-06-24 18:19:00,77.4,71.8,29.65,SE,146,0.0,4.0,83,0.00,,SKC,0.00,VWS V14.01,2013-06-24 23:19:00,
2013-06-24 18:25:00,77.4,71.8,29.66,SE,146,1.0,4.0,83,0.00,,SKC,0.00,VWS V14.01,2013-06-24 23:25:00,
2013-06-24 18:30:00,77.3,71.7,29.66,SE,146,0.0,4.0,83,0.00,,SKC,0.00,VWS V14.01,2013-06-24 23:30:00,
2013-06-24 18:35:00,77.3,71.7,29.66,SSE,147,0.0,6.0,83,0.00,,SKC,0.00,VWS V14.01,2013-06-24 23:35:00,
2013-06-24 18:41:00,77.2,71.6,29.65,SSE,147,1.0,6.0,83,0.00,,SKC,0.00,VWS V14.01,2013-06-24 23:41:00,
2013-06-24 18:46:00,77.2,72.3,29.65,SSE,147,0.0,6.0,85,0.00,,SKC,0.00,VWS V14.01,2013-06-24 23:46:00,
2013-06-24 18:51:00,77.4,71.8,29.65,SSE,147,3.0,7.0,83,0.00,,SKC,0.00,VWS V14.01,2013-06-24 23:51:00,
2013-06-24 18:58:00,77.5,72.3,29.65,SSE,147,0.0,7.0,84,0.00,,SKC,0.00,VWS V14.01,2013-06-24 23:58:00,
2013-06-24 19:00:00,77.5,71.9,29.66,SE,146,0.0,5.0,83,0.00,,SKC,0.00,VWS V14.01,2013-06-25 00:00:00,
2013-06-24 19:03:00,77.4,72.5,29.65,SSE,147,0.0,0.0,85,0.00,,SKC,0.00,VWS V14.01,2013-06-25 00:03:00,
2013-06-24 19:08:00,77.4,72.5,29.65,SSE,147,0.0,0.0,85,0.00,,SKC,0.00,VWS V14.01,2013-06-25 00:08:00,
2013-06-24 19:13:00,77.4,72.5,29.64,SSE,147,0.0,0.0,85,0.00,,SKC,0.00,VWS V14.01,2013-06-25 00:13:00,
2013-06-24 19:18:00,77.3,72.1,29.64,SSE,147,0.0,1.0,84,0.00,,SKC,0.00,VWS V14.01,2013-06-25 00:18:00,
2013-06-24 19:24:00,77.2,72.7,29.64,SSE,147,0.0,1.0,86,0.00,,SKC,0.00,VWS V14.01,2013-06-25 00:24:00,
2013-06-24 19:29:00,77.1,72.6,29.64,SSE,147,0.0,1.0,86,0.00,,SKC,0.00,VWS V14.01,2013-06-25 00:29:00,
2013-06-24 19:30:00,77.3,71.7,29.66,SE,146,0.0,4.0,83,0.00,,SKC,0.00,VWS V14.01,2013-06-25 00:30:00,
2013-06-24 19:34:00,77.0,72.5,29.64,SSE,147,0.0,0.0,86,0.00,,SKC,0.00,VWS V14.01,2013-06-25 00:34:00,
2013-06-24 19:40:00,76.8,71.9,29.64,SSE,147,0.0,0.0,85,0.00,,SKC,0.00,VWS V14.01,2013-06-25 00:40:00,
2013-06-24 19:45:00,76.6,72.1,29.64,SSE,147,0.0,0.0,86,0.00,,SKC,0.00,VWS V14.01,2013-06-25 00:45:00,
2013-06-24 19:51:00,76.5,72.0,29.64,SSE,147,0.0,0.0,86,0.00,,SKC,0.00,VWS V14.01,2013-06-25 00:51:00,
2013-06-24 19:56:00,76.5,72.0,29.63,SSE,147,0.0,3.0,86,0.00,,SKC,0.00,VWS V14.01,2013-06-25 00:56:00,
2013-06-24 20:00:00,77.5,72.6,29.65,SSE,147,0.0,7.0,85,0.00,,SKC,0.00,VWS V14.01,2013-06-25 01:00:00,
2013-06-24 20:02:00,76.5,72.0,29.63,SSE,147,0.0,1.0,86,0.00,,SKC,0.00,VWS V14.01,2013-06-25 01:02:00,
2013-06-24 20:09:00,76.5,72.0,29.62,SSE,147,0.0,1.0,86,0.00,,SKC,0.00,VWS V14.01,2013-06-25 01:09:00,
2013-06-24 20:14:00,76.5,72.3,29.63,SSE,147,0.0,2.0,87,0.00,,SKC,0.00,VWS V14.01,2013-06-25 01:14:00,
2013-06-24 20:19:00,76.4,71.9,29.63,SSE,147,0.0,2.0,86,0.00,,SKC,0.00,VWS V14.01,2013-06-25 01:19:00,
2013-06-24 20:24:00,76.2,72.1,29.63,SSE,147,0.0,2.0,87,0.00,,SKC,0.00,VWS V14.01,2013-06-25 01:24:00,
2013-06-24 20:29:00,76.0,71.9,29.63,SSE,147,0.0,2.0,87,0.00,,SKC,0.00,VWS V14.01,2013-06-25 01:29:00,
2013-06-24 20:30:00,77.1,72.6,29.64,SSE,147,0.0,1.0,86,0.00,,SKC,0.00,VWS V14.01,2013-06-25 01:30:00,
2013-06-24 20:35:00,75.8,72.0,29.63,SSE,147,0.0,0.0,88,0.00,,SKC,0.00,VWS V14.01,2013-06-25 01:35:00,
2013-06-24 20:40:00,75.5,72.0,29.63,SSE,147,0.0,0.0,89,0.00,,SKC,0.00,VWS V14.01,2013-06-25 01:40:00,
2013-06-24 20:45:00,75.3,71.8,29.63,SSE,147,0.0,0.0,89,0.00,,SKC,0.00,VWS V14.01,2013-06-25 01:45:00,
2013-06-24 20:50:00,75.1,71.6,29.63,SSE,147,0.0,0.0,89,0.00,,SKC,0.00,VWS V14.01,2013-06-25 01:50:00,
2013-06-24 20:55:00,74.9,71.4,29.63,SSE,147,0.0,0.0,89,0.00,,SKC,0.00,VWS V14.01,2013-06-25 01:55:00,
2013-06-24 21:00:00,76.5,72.0,29.63,SSE,147,0.0,3.0,86,0.00,,SKC,0.00,VWS V14.01,2013-06-25 02:00:00,
2013-06-24 21:01:00,74.8,71.3,29.63,SSE,147,0.0,0.0,89,0.00,,SKC,0.00,VWS V14.01,2013-06-25 02:01:00,
2013-06-24 21:06:00,74.7,71.6,29.63,SSE,147,0.0,0.0,90,0.00,,SKC,0.00,VWS V14.01,2013-06-25 02:06:00,
2013-06-24 21:11:00,74.6,71.5,29.63,SSE,147,0.0,0.0,90,0.00,,SKC,0.00,VWS V14.01,2013-06-25 02:11:00,
2013-06-24 21:17:00,74.5,71.4,29.63,SSE,147,0.0,1.0,90,0.00,,SKC,0.00,VWS V14.01,2013-06-25 02:17:00,
2013-06-24 21:23:00,74.4,71.3,29.63,SSE,147,0.0,4.0,90,0.00,,SKC,0.00,VWS V14.01,2013-06-25 02:23:00,
2013-06-24 21:29:00,74.4,71.3,29.63,SSE,147,5.0,6.0,90,0.00,,SKC,0.00,VWS V14.01,2013-06-25 02:29:00,
2013-06-24 21:30:00,76.0,71.9,29.63,SSE,147,0.0,2.0,87,0.00,,SKC,0.00,VWS V14.01,2013-06-25 02:30:00,
2013-06-24 21:35:00,74.3,71.2,29.63,SSE,147,2.0,5.0,90,0.00,,SKC,0.00,VWS V14.01,2013-06-25 02:35:00,
2013-06-24 21:40:00,74.4,71.3,29.63,SSE,147,0.0,5.0,90,0.00,,SKC,0.00,VWS V14.01,2013-06-25 02:40:00,
2013-06-24 21:46:00,74.3,71.2,29.63,SSE,147,0.0,5.0,90,0.00,,SKC,0.00,VWS V14.01,2013-06-25 02:46:00,
2013-06-24 21:51:00,74.3,71.5,29.63,SSE,147,0.0,5.0,91,0.00,,SKC,0.00,VWS V14.01,2013-06-25 02:51:00,
2013-06-24 21:56:00,74.2,71.4,29.64,SSE,147,0.0,5.0,91,0.00,,SKC,0.00,VWS V14.01,2013-06-25 02:56:00,
2013-06-24 22:00:00,74.8,71.3,29.63,SSE,147,0.0,1.0,89,0.00,,SKC,0.00,VWS V14.01,2013-06-25 03:00:00,
2013-06-24 22:02:00,74.1,71.3,29.64,SSE,147,0.0,0.0,91,0.00,,SKC,0.00,VWS V14.01,2013-06-25 03:02:00,
2013-06-24 22:07:00,74.0,70.9,29.63,SSE,147,0.0,0.0,90,0.00,,SKC,0.00,VWS V14.01,2013-06-25 03:07:00,
2013-06-24 22:13:00,73.9,71.1,29.64,SSE,147,0.0,1.0,91,0.00,,SKC,0.00,VWS V14.01,2013-06-25 03:13:00,
2013-06-24 22:18:00,73.8,71.0,29.64,SSE,147,0.0,1.0,91,0.00,,SKC,0.00,VWS V14.01,2013-06-25 03:18:00,
2013-06-24 22:23:00,73.7,70.9,29.65,SSE,147,0.0,1.0,91,0.00,,SKC,0.00,VWS V14.01,2013-06-25 03:23:00,
2013-06-24 22:29:00,73.5,70.7,29.65,SSE,147,0.0,1.0,91,0.00,,SKC,0.00,VWS V14.01,2013-06-25 03:29:00,
2013-06-24 22:30:00,74.4,71.3,29.63,SSE,147,3.0,6.0,90,0.00,,SKC,0.00,VWS V14.01,2013-06-25 03:30:00,
2013-06-24 22:35:00,73.3,70.5,29.66,SSE,147,0.0,0.0,91,0.00,,SKC,0.00,VWS V14.01,2013-06-25 03:35:00,
2013-06-24 22:41:00,73.1,70.6,29.66,SSE,147,0.0,0.0,92,0.00,,SKC,0.00,VWS V14.01,2013-06-25 03:41:00,
2013-06-24 22:46:00,72.9,70.4,29.66,SSE,147,0.0,0.0,92,0.00,,SKC,0.00,VWS V14.01,2013-06-25 03:46:00,
2013-06-24 22:53:00,72.7,69.9,29.66,SSE,147,1.0,1.0,91,0.00,,SKC,0.00,VWS V14.01,2013-06-25 03:53:00,
2013-06-24 22:58:00,72.5,69.7,29.66,SSE,147,0.0,6.0,91,0.00,,SKC,0.00,VWS V14.01,2013-06-25 03:58:00,
2013-06-24 23:00:00,74.1,71.3,29.64,SSE,147,0.0,5.0,91,0.00,,SKC,0.00,VWS V14.01,2013-06-25 04:00:00,
2013-06-24 23:01:00,72.4,69.6,29.65,SSE,147,0.0,0.0,91,0.00,,SKC,0.00,VWS V14.01,2013-06-25 04:01:00,
2013-06-24 23:03:00,72.3,69.5,29.65,SSE,147,0.0,0.0,91,0.00,,SKC,0.00,VWS V14.01,2013-06-25 04:03:00,
2013-06-24 23:04:00,72.3,69.5,29.65,SSE,147,0.0,0.0,91,0.00,,SKC,0.00,VWS V14.01,2013-06-25 04:04:00,
2013-06-24 23:05:00,72.3,69.5,29.65,SSE,147,0.0,0.0,91,0.00,,SKC,0.00,VWS V14.01,2013-06-25 04:05:00,
2013-06-24 23:10:00,72.1,69.3,29.65,SSE,147,0.0,1.0,91,0.00,,SKC,0.00,VWS V14.01,2013-06-25 04:10:00,
2013-06-24 23:13:00,72.0,69.2,29.65,SSE,147,0.0,1.0,91,0.00,,SKC,0.00,VWS V14.01,2013-06-25 04:13:00,
2013-06-24 23:18:00,71.7,68.6,29.65,SSE,147,0.0,1.0,90,0.00,,SKC,0.00,VWS V14.01,2013-06-25 04:18:00,
2013-06-24 23:23:00,71.5,68.4,29.65,SSE,147,3.0,3.0,90,0.00,,SKC,0.00,VWS V14.01,2013-06-25 04:23:00,
2013-06-24 23:28:00,71.4,68.3,29.65,SSE,147,0.0,3.0,90,0.00,,SKC,0.00,VWS V14.01,2013-06-25 04:28:00,
2013-06-24 23:30:00,73.5,70.7,29.65,SSE,147,0.0,1.0,91,0.00,,SKC,0.00,VWS V14.01,2013-06-25 04:30:00,
2013-06-24 23:33:00,71.3,68.2,29.65,SSE,147,0.0,3.0,90,0.00,,SKC,0.00,VWS V14.01,2013-06-25 04:33:00,
2013-06-24 23:38:00,71.2,68.1,29.66,SSE,147,0.0,3.0,90,0.00,,SKC,0.00,VWS V14.01,2013-06-25 04:38:00,
2013-06-24 23:43:00,71.1,68.0,29.66,SSE,147,0.0,3.0,90,0.00,,SKC,0.00,VWS V14.01,2013-06-25 04:43:00,
2013-06-24 23:48:00,71.0,67.9,29.65,SSE,147,0.0,3.0,90,0.00,,SKC,0.00,VWS V14.01,2013-06-25 04:48:00,
2013-06-24 23:53:00,70.8,67.7,29.65,SSE,147,1.0,5.0,90,0.00,,SKC,0.00,VWS V14.01,2013-06-25 04:53:00,
2013-06-24 23:58:00,70.6,67.5,29.65,SSE,147,0.0,5.0,90,0.00,,SKC,0.00,VWS V14.01,2013-06-25 04:58:00,